"TOA5","AWS1","CR1000","7964","CR1000.Std.14","CPU:AWS1_114.CR1","64363","TBL110"
"TIMESTAMP","RECORD","Wind_spd_WVc(1)","Wind_spd_WVc(2)","Air_Temp_Avg","Humidity_Avg","SW_upper_Wm2_Avg","Rain_Tot","Press_Avg","Issui_Tot","Depth_cm","SR50A_Raw","Quality","Ground_Temp_Avg(1)","Ground_Temp_Avg(2)","SW_lower_Wm2_Avg","Albedo_Avg","SWC_per(1)","SWC_per(2)","Period(1)","Period(2)"
"TS","RN","","","","","","","","","","","","","","","","","","",""
"","","WVc","WVc","Avg","Avg","Avg","Tot","Avg","Tot","Smp","Smp","Smp","Avg","Avg","Avg","Avg","Smp","Smp","Smp","Smp"
"2016-02-19 00:00:00",223117,0.253,125.5,-4.444,42.41,0,0,869.6136,0,26.73,2.935,190,0.975,1.456,0.02275278,0,52.38,60.8,33.88,35.86
"2016-02-19 00:10:00",223118,0.133,133.9,-4.123,39.83,0,0,869.5715,0,26.63,2.932,187,0.932,1.458,0.08721899,0,52.38,60.8,33.88,35.86
"2016-02-19 00:20:00",223119,0.379,86.6,-3.134,33.66,0,0,869.6115,0,26.99,2.926,187,0.928,1.456,0.6636228,0,52.38,60.8,33.88,35.86
"2016-02-19 00:30:00",223120,0.429,95.9,-2.892,35.1,0,0,869.6136,0,26.45,2.93,187,0.934,1.453,0.2806176,0,52.38,60.8,33.88,35.86
"2016-02-19 00:40:00",223121,0.202,120.5,-2.962,39.84,0,0,869.6221,0,26.56,2.931,190,0.954,1.453,0.1251403,0,52.38,60.74,33.88,35.85
"2016-02-19 00:50:00",223122,0.301,171.1,-2.972,40.1,0,0,869.6136,0,26.62,2.929,178,0.918,1.453,0.05688196,0,52.38,60.74,33.88,35.85
"2016-02-19 01:00:00",223123,0.41,173,-3.12,42.89,0,0,869.6158,0,26.72,2.929,169,0.952,1.456,0.01516852,0,52.38,60.74,33.88,35.85
"2016-02-19 01:10:00",223124,0.353,232.9,-2.889,46.85,0,0,869.9297,0,26.8,2.927,187,0.975,1.446,0.0379213,0,52.38,60.8,33.88,35.86
"2016-02-19 01:20:00",223125,0.345,85.5,-2.716,49.83,0,0,870.1194,0,26.6,2.929,181,1.033,1.415,0.2654491,0,52.38,60.8,33.88,35.86
"2016-02-19 01:30:00",223126,0.527,132.5,-2.634,54.63,0,0,870.1194,0,26.65,2.928,192,1.026,1.421,0.291994,0,52.38,60.74,33.88,35.85
"2016-02-19 01:40:00",223127,0.318,78.32,-2.719,58.23,0,0,870.1111,0,26.35,2.932,190,1.023,1.44,0.03033704,0,52.38,60.74,33.88,35.85
"2016-02-19 01:50:00",223128,0.486,92.3,-3,61.56,0,0,869.9213,0,26.65,2.929,192,1.023,1.472,0,0,52.38,60.74,33.88,35.85
"2016-02-19 02:00:00",223129,0.478,113.2,-2.853,61.53,0,0,869.8729,0,26.67,2.929,186,1.016,1.477,0,0,52.44,60.74,33.89,35.85
"2016-02-19 02:10:00",223130,1.012,144.5,-2.851,63.32,0,0,869.8665,0,26.84,2.928,185,1.004,1.492,0,0,52.38,60.74,33.88,35.85
"2016-02-19 02:20:00",223131,0.849,150.2,-2.866,64.37,0,0,869.8813,0,26.7,2.928,191,0.997,1.49,0,0,52.32,60.74,33.87,35.85
"2016-02-19 02:30:00",223132,0.784,136.8,-2.805,65.65,0,0,870.0246,0,26.62,2.929,190,0.991,1.495,0,0,52.38,60.74,33.88,35.85
"2016-02-19 02:40:00",223133,0.676,121.9,-2.817,67.15,0,0,870.1194,0,26.62,2.929,182,0.994,1.5,0,0,52.38,60.74,33.88,35.85
"2016-02-19 02:50:00",223134,0.453,99.9,-2.944,69.37,0,0,870.0436,0,26.49,2.931,191,0.99,1.498,0,0,52.32,60.74,33.87,35.85
"2016-02-19 03:00:00",223135,0.713,136.8,-2.852,70.23,0,0,870.1174,0,26.79,2.928,190,0.986,1.5,0.01516852,0,52.32,60.74,33.87,35.85
"2016-02-19 03:10:00",223136,0.763,108.4,-2.911,72.44,0,0,870.267,0,26.65,2.928,190,0.984,1.498,0.05308982,0,52.38,60.74,33.88,35.85
"2016-02-19 03:20:00",223137,0.797,142.3,-2.673,72,0,0,870.208,0,26.61,2.928,190,0.982,1.5,0.087219,0,52.32,60.74,33.87,35.85
"2016-02-19 03:30:00",223138,0.868,133.8,-2.751,72.79,0,0,870.092,0,26.67,2.928,190,0.982,1.5,0,0,52.38,60.74,33.88,35.85
"2016-02-19 03:40:00",223139,0.79,142.9,-2.695,72.68,0,0,869.7633,0,26.67,2.928,185,0.982,1.501,0,0,52.32,60.74,33.87,35.85
"2016-02-19 03:50:00",223140,0.847,157,-2.675,73.07,0,0,869.6199,0,26.43,2.93,182,0.982,1.508,0,0,52.32,60.74,33.87,35.85
"2016-02-19 04:00:00",223141,0.524,170.4,-2.721,74.05,0,0,869.6937,0,26.58,2.929,173,0.981,1.501,0,0,52.38,60.74,33.88,35.85
"2016-02-19 04:10:00",223142,0.847,140.7,-2.589,74.24,0,0,869.7316,0,26.61,2.927,173,0.975,1.495,0.1251403,0,52.38,60.74,33.88,35.85
"2016-02-19 04:20:00",223143,0.547,126.9,-2.631,75.28,0,0,869.7084,0,26.63,2.928,178,0.96,1.496,0.03412917,0,52.38,60.68,33.88,35.83
"2016-02-19 04:30:00",223144,0.69,133.2,-2.663,75.74,0,0,869.6094,0,26.67,2.928,178,0.975,1.521,0,0,52.38,60.68,33.88,35.83
"2016-02-19 04:40:00",223145,0.726,160.6,-2.764,76.45,0,0,869.5905,0,26.62,2.929,178,0.976,1.506,0,0,52.38,60.68,33.88,35.83
"2016-02-19 04:50:00",223146,0.824,144.1,-2.875,77.16,0,0,869.6199,0,26.55,2.93,178,0.981,1.498,0,0,52.38,60.68,33.88,35.83
"2016-02-19 05:00:00",223147,0.593,143,-2.777,76.36,0,0,869.6768,0,26.51,2.929,177,0.978,1.498,0,0,52.32,60.74,33.87,35.85
"2016-02-19 05:10:00",223148,0.665,90,-2.903,76.56,0,0,869.6663,0,26.57,2.93,172,0.98,1.502,0,0,52.38,60.74,33.88,35.85
"2016-02-19 05:20:00",223149,0.527,116.7,-2.892,76.62,0,0,869.5209,0,26.99,2.926,187,0.982,1.504,0,0,52.38,60.74,33.88,35.85
"2016-02-19 05:30:00",223150,0.622,123.6,-2.814,76.41,0,0,869.5693,0,26.57,2.93,173,0.983,1.5,0.02275278,0,52.32,60.68,33.87,35.83
"2016-02-19 05:40:00",223151,0.495,55.58,-2.865,77.14,0,0,869.8012,0,26.6,2.929,169,0.981,1.501,0,0,52.38,60.74,33.88,35.85
"2016-02-19 05:50:00",223152,0.643,129.1,-2.902,77.33,0,0,869.6895,0,26.52,2.931,169,0.984,1.5,0,0,52.32,60.68,33.87,35.83
"2016-02-19 06:00:00",223153,0.599,125.7,-3.074,78.37,0,0,869.856,0,26.69,2.93,181,0.983,1.505,0,0,52.32,60.74,33.87,35.85
"2016-02-19 06:10:00",223154,0.702,133.1,-3.155,79.25,0,0,869.8582,0,26.56,2.932,178,0.982,1.507,0,0,52.32,60.74,33.87,35.85
"2016-02-19 06:20:00",223155,0.711,117.8,-3.216,79.62,0,0,869.9972,0,26.53,2.932,173,0.982,1.508,0,0,52.32,60.74,33.87,35.85
"2016-02-19 06:30:00",223156,0.613,125.2,-3.269,79.24,0,0,869.9593,0,26.68,2.931,178,0.985,1.498,0.1592695,0,52.32,60.68,33.87,35.83
"2016-02-19 06:40:00",223157,0.833,128.6,-3.308,79.17,0.04719562,0,869.9635,0,26.68,2.931,173,1.004,1.5,1.767133,1.227,52.32,60.74,33.87,35.85
"2016-02-19 06:50:00",223158,0.559,127.9,-3.451,79.08,2.379446,0,869.9424,0,26.35,2.936,178,1.016,1.5,4.072748,1.887,52.32,60.74,33.87,35.85
"2016-02-19 07:00:00",223159,0.643,117.1,-3.638,79.47,6.060705,0,870.1152,0,26.72,2.932,177,1.011,1.495,6.412492,1.083,52.32,60.74,33.87,35.85
"2016-02-19 07:10:00",223160,0.786,151.3,-3.242,78.03,11.41348,0,870.1406,0,26.76,2.93,174,1.011,1.5,9.954342,0.878,52.32,60.74,33.87,35.85
"2016-02-19 07:20:00",223161,0.477,99,-3.51,78.95,14.77223,0,870.3323,0,26.31,2.935,179,1.004,1.498,11.92625,0.807,52.38,60.74,33.88,35.85
"2016-02-19 07:30:00",223162,0.716,112.4,-3.313,78.53,21.9145,0,870.3661,0,26.6,2.932,174,1.014,1.497,16.80293,0.767,52.38,60.74,33.88,35.85
"2016-02-19 07:40:00",223163,0.987,133.2,-3.027,78.02,35.88047,0,870.1237,0,26.46,2.932,179,0.99,1.501,28.71022,0.804,52.32,60.74,33.87,35.85
"2016-02-19 07:50:00",223164,0.833,130.5,-2.923,77.74,44.72179,0,869.8982,0,26.66,2.93,190,0.979,1.499,30.7921,0.711,52.32,60.68,33.87,35.83
"2016-02-19 08:00:00",223165,0.475,132.4,-2.852,78.06,50.45606,0,869.7527,0,26.68,2.927,173,0.957,1.476,48.44067,0.968,52.32,60.74,33.87,35.85
"2016-02-19 08:10:00",223166,0.695,143.2,-2.401,76.09,44.09645,0,870.0352,0,26.66,2.926,178,0.943,1.509,41.65655,0.918,52.32,60.74,33.87,35.85
"2016-02-19 08:20:00",223167,0.805,143.6,-2.285,74.95,51.16792,0,870.2923,0,26.62,2.926,178,0.954,1.496,39.18408,0.768,52.38,60.74,33.88,35.85
"2016-02-19 08:30:00",223168,0.641,139.4,-2.166,74.68,71.78062,0,870.3914,0,26.66,2.924,181,0.962,1.524,48.50514,0.677,52.32,60.74,33.87,35.85
"2016-02-19 08:40:00",223169,0.635,133.1,-1.819,73.16,92.73154,0,870.4146,0,26.74,2.922,174,0.998,1.5,65.1526,0.767,52.32,60.68,33.87,35.83
"2016-02-19 08:50:00",223170,0.633,123.2,-1.407,71.41,143.9467,0,870.6653,0,26.61,2.921,176,1.024,1.496,85.45566,0.603,52.38,60.62,33.88,35.82
"2016-02-19 09:00:00",223171,0.455,108.1,-1.184,70.9,145.9918,0,870.9668,0,26.56,2.921,190,1.03,1.46,88.64864,0.603,52.32,60.68,33.87,35.83
"2016-02-19 09:10:00",223172,0.563,73.21,-1.127,71,158.3138,0,871.1586,0,26.61,2.918,190,1.064,1.465,105.4516,0.665,52.32,60.68,33.87,35.83
"2016-02-19 09:20:00",223173,0.785,56.53,-0.712,69.64,147.5453,0,871.4515,0,26.51,2.919,181,1.04,1.515,91.59891,0.613,52.32,60.68,33.87,35.83
"2016-02-19 09:30:00",223174,0.633,32.54,-0.954,70.97,111.7826,0,871.7043,0,26.66,2.919,182,1.016,1.51,65.33977,0.585,52.32,60.68,33.87,35.83
"2016-02-19 09:40:00",223175,0.345,75.95,-0.975,70.09,132.076,0,871.7164,0,26.53,2.92,174,0.98,1.472,79.08151,0.597,52.32,60.68,33.87,35.83
"2016-02-19 09:50:00",223176,0.485,36.55,-0.736,68.91,168.2685,0,871.8145,0,26.65,2.917,187,0.96,1.427,100.8237,0.593,52.32,60.62,33.87,35.82
"2016-02-19 10:00:00",223177,0.374,23.03,-0.54,69.39,179.0459,0,871.8484,0,26.52,2.917,181,0.966,1.434,113.2156,0.628,52.32,60.68,33.87,35.83
"2016-02-19 10:10:00",223178,0.792,53.8,-0.432,68.77,127.3384,0,871.7716,0,26.94,2.911,170,0.983,1.458,104.3814,0.837,52.32,60.68,33.87,35.83
"2016-02-19 10:20:00",223179,0.633,30.23,-0.127,67.08,118.8494,0,871.7587,0,26.73,2.914,190,0.967,1.456,101.8524,0.861,52.32,60.68,33.87,35.83
"2016-02-19 10:30:00",223180,0.555,351.8,-0.298,68.57,137.2139,0,871.6281,0,26.99,2.91,190,0.943,1.453,115.7495,0.859,52.32,60.68,33.87,35.83
"2016-02-19 10:40:00",223181,0.64,41.7,0.229,66.15,143.1506,0,871.489,0,26.52,2.911,179,0.938,1.451,143.6614,1.034,52.32,60.68,33.87,35.83
"2016-02-19 10:50:00",223182,0.576,2.26,0.545,63.91,144.9906,0,871.1898,0,26.1,2.918,170,0.99,1.459,136.3944,0.944,52.32,60.68,33.87,35.83
"2016-02-19 11:00:00",223183,0.69,9.93,0.223,63.88,186.949,0,871.449,0.5,25.75,2.921,174,1.019,1.457,128.7066,0.686,52.32,60.68,33.87,35.83
"2016-02-19 11:10:00",223184,0.502,37.2,0.124,64.14,147.904,0,871.6659,0,26.1,2.918,183,0.987,1.465,112.478,0.75,52.32,60.68,33.87,35.83
"2016-02-19 11:20:00",223185,0.637,341.9,0.538,61.82,191.5192,0,871.525,0,25.73,2.918,190,1.001,1.462,150.6689,0.773,52.32,60.68,33.87,35.83
"2016-02-19 11:30:00",223186,0.829,353.1,1.059,58.77,214.18,0,871.2958,0,26,2.914,181,1.017,1.453,185.1645,0.876,52.32,60.68,33.87,35.83
"2016-02-19 11:40:00",223187,0.394,65.6,1.498,57.82,196.0936,0,871.427,0,26.11,2.913,191,0.944,1.44,183.7798,0.934,52.32,60.68,33.87,35.83
"2016-02-19 11:50:00",223188,0.577,17.29,1.371,56.11,397.0782,0,871.6285,0,25.99,2.913,176,0.907,1.41,220.2882,0.578,52.32,60.68,33.87,35.83
"2016-02-19 12:00:00",223189,0.976,59.74,1.339,57.26,306.4165,0,871.6815,0,25.86,2.913,172,0.894,1.385,206.994,0.655,52.27,60.62,33.85,35.82
"2016-02-19 12:10:00",223190,0.655,32.78,2.067,55.03,835.5775,0,871.4509,0,25.64,2.912,174,0.922,1.389,371.3076,0.444,52.32,60.68,33.87,35.83
"2016-02-19 12:20:00",223191,0.385,342.2,2.35,55.16,834.5746,0,871.5117,0,25.96,2.907,192,0.916,1.452,382.0228,0.454,52.32,60.62,33.87,35.82
"2016-02-19 12:30:00",223192,0.574,73.33,3.09,51.02,856.2448,0,871.6402,0,25.26,2.909,187,0.922,1.46,433.3589,0.507,52.27,60.62,33.85,35.82
"2016-02-19 12:40:00",223193,0.335,39.57,3.081,52.44,704.8436,0,871.6318,0,25.57,2.908,186,0.981,1.442,358.8621,0.503,52.32,60.62,33.87,35.82
"2016-02-19 12:50:00",223194,0.404,330.8,2.958,53.59,533.7129,0,871.7351,0,25.68,2.911,186,0.912,1.385,271.7425,0.501,52.27,60.56,33.85,35.81
"2016-02-19 13:00:00",223195,0.435,300.9,2.537,53.96,644.6693,0,871.3935,0,25.68,2.91,175,0.879,1.356,331.6001,0.507,52.32,60.62,33.87,35.82
"2016-02-19 13:10:00",223196,0.886,143.5,2.035,53.9,391.3544,0,871.1329,0,25.71,2.911,177,0.871,1.335,203.5739,0.506,52.27,60.62,33.85,35.82
"2016-02-19 13:20:00",223197,0.456,39.17,2.476,53.1,461.2588,0,870.7728,0,25.87,2.909,177,0.866,1.331,231.3125,0.496,52.27,60.56,33.85,35.81
"2016-02-19 13:30:00",223198,0.635,66.57,1.913,55.14,198.8571,0,870.7851,0,26.01,2.912,202,0.853,1.33,99.78959,0.498,52.27,60.56,33.85,35.81
"2016-02-19 13:40:00",223199,0.109,303.3,1.426,56.69,163.7394,0,870.9827,0,26.26,2.91,189,0.818,1.355,83.73044,0.511,52.27,60.62,33.85,35.82
"2016-02-19 13:50:00",223200,0.348,140.7,1.675,54.07,190.2301,0,870.9583,0,26.06,2.909,184,0.803,1.305,96.07159,0.514,52.27,60.62,33.85,35.82
"2016-02-19 14:00:00",223201,0.661,137.8,2.207,51.38,536.954,0,870.9125,0,25.89,2.907,180,0.807,1.283,202.2856,0.392,52.27,60.62,33.85,35.82
"2016-02-19 14:10:00",223202,0.43,286.6,2.856,48.89,571.1003,0,870.5434,0,25.71,2.905,189,0.812,1.333,166.341,0.3,52.27,60.56,33.85,35.81
"2016-02-19 14:20:00",223203,0.55,114.7,2.969,49.37,243.642,0,870.4359,0,26.02,2.905,178,0.868,1.396,101.8338,0.54,52.27,60.62,33.85,35.82
"2016-02-19 14:30:00",223204,0.639,333.7,2.566,47.01,88.69733,0,870.5811,0,26.3,2.904,176,0.888,1.399,63.53288,0.715,52.27,60.62,33.85,35.82
"2016-02-19 14:40:00",223205,0.39,237.2,2.5,46.55,82.54778,0,870.4853,0,26.39,2.902,180,0.896,1.382,51.23298,0.621,52.27,60.62,33.85,35.82
"2016-02-19 14:50:00",223206,0.728,141.8,2.539,46.58,75.1581,0,870.4098,0,25.88,2.908,177,0.898,1.346,44.66103,0.594,52.27,60.62,33.85,35.82
"2016-02-19 15:00:00",223207,0.424,310,2.373,47.01,69.72965,0,870.3467,0,25.97,2.907,177,0.833,1.346,41.36841,0.593,52.27,60.62,33.85,35.82
"2016-02-19 15:10:00",223208,0.308,323.6,2.467,48.75,68.50314,0,870.5529,0,26.29,2.904,188,0.813,1.364,40.26417,0.588,52.27,60.62,33.85,35.82
"2016-02-19 15:20:00",223209,0.332,304.7,2.571,47.58,86.38491,0,870.9172,0,26.04,2.906,172,0.845,1.421,47.89062,0.557,52.27,60.56,33.85,35.81
"2016-02-19 15:30:00",223210,0.271,51.53,2.73,50.9,117.5222,0,871.5645,0,26.08,2.904,178,0.847,1.337,63.43406,0.54,52.27,60.62,33.85,35.82
"2016-02-19 15:40:00",223211,0.36,23.37,3.008,47.84,81.22729,0,872.0209,0,25.96,2.904,187,0.853,1.286,44.56892,0.549,52.27,60.62,33.85,35.82
"2016-02-19 15:50:00",223212,0.272,22.03,2.638,50.7,63.86046,0,872.3478,0,25.55,2.911,174,0.855,1.293,34.84993,0.546,52.21,60.62,33.84,35.82
"2016-02-19 16:00:00",223213,0.272,22.96,2.55,49.17,83.21777,0,872.4426,0,26.05,2.905,189,0.887,1.312,45.25261,0.544,52.27,60.62,33.85,35.82
"2016-02-19 16:10:00",223214,0.2,205.6,2.749,48.95,70.6707,0,872.5743,0,25.86,2.907,176,0.904,1.341,37.81935,0.535,52.27,60.56,33.85,35.81
"2016-02-19 16:20:00",223215,0.468,32.53,2.711,47.48,67.9678,0,872.8847,0,25.65,2.909,182,0.909,1.358,36.86707,0.543,52.27,60.56,33.85,35.81
"2016-02-19 16:30:00",223216,0.16,64.7,2.652,47.05,51.81222,0,872.7648,0,25.62,2.91,176,0.903,1.365,28.32644,0.549,52.21,60.62,33.84,35.82
"2016-02-19 16:40:00",223217,0.354,46.92,2.295,48.23,40.01408,0,873.0007,0,25.99,2.909,189,0.856,1.379,21.84284,0.547,52.27,60.56,33.85,35.81
"2016-02-19 16:50:00",223218,0.127,54.26,1.947,50.88,43.4689,0,873.085,0,25.94,2.91,176,0.852,1.387,23.38145,0.538,52.27,60.56,33.85,35.81
"2016-02-19 17:00:00",223219,0.137,303.3,1.674,52.5,36.63417,0,873.0912,0,25.86,2.914,185,0.853,1.434,19.55782,0.534,52.27,60.56,33.85,35.81
"2016-02-19 17:10:00",223220,0.094,286,1.263,53.52,21.02702,0,873.1987,0,25.79,2.916,177,0.883,1.41,11.51262,0.551,52.27,60.56,33.85,35.81
"2016-02-19 17:20:00",223221,0.073,255.8,0.951,54.36,7.966684,0,873.3967,0,25.88,2.917,179,0.897,1.368,5.024931,0.666,52.27,60.56,33.85,35.81
"2016-02-19 17:30:00",223222,0.066,220.2,0.651,56.94,1.788279,0,873.7063,0,25.99,2.917,173,0.929,1.367,1.754557,0.927,52.27,60.56,33.85,35.81
"2016-02-19 17:40:00",223223,0.022,172.1,0.477,56.9,0,0,873.7863,0,25.86,2.919,173,0.91,1.387,0.03789541,0,52.27,60.56,33.85,35.81
"2016-02-19 17:50:00",223224,0,0,0.343,56.84,0,0,873.9759,0,25.85,2.92,184,0.862,1.409,0,0,52.21,60.56,33.84,35.81
"2016-02-19 18:00:00",223225,0.024,259.1,0.233,56.41,0,0,874.0349,0,25.77,2.921,170,0.858,1.409,0,0,52.27,60.56,33.85,35.81
"2016-02-19 18:10:00",223226,0,0,0.278,56.66,0,0,874.2372,0,25.78,2.921,189,0.902,1.413,0,0,52.27,60.56,33.85,35.81
"2016-02-19 18:20:00",223227,0.116,64.14,-0.062,59.57,0,0,874.2676,0,26,2.921,172,0.94,1.421,0,0,52.27,60.56,33.85,35.81
"2016-02-19 18:30:00",223228,0.134,127.5,-0.028,59.03,0,0,874.1807,0,25.9,2.921,169,0.965,1.44,0.04927912,0,52.21,60.56,33.84,35.81
"2016-02-19 18:40:00",223229,0.285,127,0.033,57.76,0,0,874.3449,0,25.85,2.921,171,0.976,1.45,0.1516302,0,52.21,60.56,33.84,35.81
"2016-02-19 18:50:00",223230,0.175,135.7,-0.06,58.63,0,0,874.2462,0,26.08,2.92,177,0.978,1.453,0,0,52.21,60.56,33.84,35.81
"2016-02-19 19:00:00",223231,0.364,149.9,-0.074,58.76,0,0,873.9934,0,25.78,2.923,173,0.976,1.454,0,0,52.21,60.56,33.84,35.81
"2016-02-19 19:10:00",223232,0.225,152.3,0.017,57.72,0,0,873.9855,0,25.91,2.919,172,0.977,1.455,0.04549003,0,52.21,60.56,33.84,35.81
"2016-02-19 19:20:00",223233,0.432,149.6,0.434,55.03,0,0,873.973,0,26.08,2.917,185,0.972,1.454,0.2274502,0,52.21,60.56,33.84,35.81
"2016-02-19 19:30:00",223234,0.344,169.5,0.51,54.56,0,0,873.815,0,26.17,2.915,189,0.955,1.455,0.1250976,0,52.21,60.56,33.84,35.81
"2016-02-19 19:40:00",223235,0.476,147.7,0.655,52.03,0,0,873.8024,0,25.71,2.92,179,0.977,1.435,0.1326793,0,52.21,60.56,33.84,35.81
"2016-02-19 19:50:00",223236,0.727,132.4,0.485,52.63,0,0,873.5685,0,25.86,2.919,168,0.968,1.448,0,0,52.21,60.56,33.84,35.81
"2016-02-19 20:00:00",223237,0.872,127.1,0.738,46.78,0,0,873.4778,0,25.76,2.917,169,0.978,1.455,0.08339839,0,52.21,60.5,33.84,35.79
"2016-02-19 20:10:00",223238,0.751,69.89,0.821,46.17,0,0,873.4463,0,26.2,2.914,168,0.978,1.454,0,0,52.21,60.5,33.84,35.79
"2016-02-19 20:20:00",223239,0.373,67.6,0.413,52.56,0,0,873.3262,0,26.23,2.916,169,0.979,1.452,0,0,52.21,60.5,33.84,35.79
"2016-02-19 20:30:00",223240,0.581,164.8,0.297,53.27,0,0,873.3389,0,25.98,2.921,173,0.972,1.448,0.01137251,0,52.21,60.5,33.84,35.79
"2016-02-19 20:40:00",223241,0.108,198.6,-0.022,54.58,0,0,873.6043,0,25.74,2.923,170,0.965,1.408,0,0,52.21,60.5,33.84,35.79
"2016-02-19 20:50:00",223242,0.041,190,-0.364,58.46,0,0,873.8192,0,25.86,2.925,173,0.96,1.378,0,0,52.21,60.5,33.84,35.79
"2016-02-19 21:00:00",223243,0.247,194.2,-0.611,58.36,0,0,873.7139,0,25.85,2.924,173,0.969,1.369,0,0,52.21,60.5,33.84,35.79
"2016-02-19 21:10:00",223244,0.082,195.8,-0.063,48.19,0,0,873.9583,0,25.59,2.924,172,0.935,1.371,0.1326793,0,52.21,60.5,33.84,35.79
"2016-02-19 21:20:00",223245,0.09,158.3,-0.392,55.26,0,0,873.9225,0,25.85,2.926,171,0.945,1.374,0,0,52.21,60.5,33.84,35.79
"2016-02-19 21:30:00",223246,0.206,177.3,-0.761,54.57,0,0,873.5664,0,25.83,2.923,177,0.946,1.372,0.03411753,0,52.16,60.5,33.83,35.79
"2016-02-19 21:40:00",223247,0.257,142.2,-0.069,44.36,0,0,873.7054,0,26.05,2.918,174,0.939,1.377,0.3222211,0,52.16,60.5,33.83,35.79
"2016-02-19 21:50:00",223248,0.328,160.9,-0.22,48.4,0,0,873.4884,0,25.81,2.925,171,0.938,1.379,0.185751,0,52.21,60.5,33.84,35.79
"2016-02-19 22:00:00",223249,0.574,180.3,-0.236,46.56,0,0,873.1598,0,25.72,2.922,172,0.949,1.378,0.1061434,0,52.16,60.5,33.83,35.79
"2016-02-19 22:10:00",223250,0.306,249.4,0.353,36.9,0,0,873.3768,0,26,2.916,189,0.938,1.371,0.1061434,0,52.16,60.5,33.83,35.79
"2016-02-19 22:20:00",223251,0.219,200.5,0.156,41.64,0,0,873.5664,0,25.65,2.925,168,0.936,1.371,0.03032669,0,52.16,60.5,33.83,35.79
"2016-02-19 22:30:00",223252,0.073,201.7,-0.288,43.88,0,0,873.5664,0,25.63,2.925,179,0.936,1.374,0.007581673,0,52.16,60.5,33.83,35.79
"2016-02-19 22:40:00",223253,0,0,-0.467,44.79,0,0,873.8002,0,25.96,2.921,173,0.936,1.382,0,0,52.16,60.5,33.83,35.79
"2016-02-19 22:50:00",223254,0.189,72.18,0.517,30.5,0,0,873.7939,0,26.3,2.913,188,0.936,1.393,0.5269263,0,52.16,60.5,33.83,35.79
"2016-02-19 23:00:00",223255,0.212,206,0.463,33.92,0,0,873.8234,0,25.57,2.927,172,0.937,1.384,0.3677111,0,52.16,60.5,33.83,35.79
"2016-02-19 23:10:00",223256,0.091,211.8,-0.422,35.97,0,0,873.8372,0,25.84,2.921,168,0.939,1.403,0.01137259,0,52.21,60.44,33.84,35.78
"2016-02-19 23:20:00",223257,0.092,192.2,0.299,29.04,0,0,873.7045,0,25.39,2.925,168,0.943,1.413,0.140266,0,52.16,60.44,33.83,35.78
"2016-02-19 23:30:00",223258,0.425,311.6,1.071,22.43,0.09829888,0,873.8807,0,25.92,2.913,185,0.957,1.403,0.6672409,1.176,52.16,60.44,33.83,35.78
"2016-02-19 23:40:00",223259,0.245,296.1,1.372,21.4,0.01179583,0,873.8307,0,25.53,2.918,177,0.956,1.391,0.2615892,0.193,52.16,60.44,33.83,35.78
"2016-02-19 23:50:00",223260,0.181,189.3,0.874,27.24,0,0,873.6945,0,25.47,2.926,170,0.953,1.39,0,0,52.16,60.44,33.83,35.78
